Lid_Strength_Index
3 2 2 2 2 2 3 3 3 3 4 5 6 7 7 7 6 6 7 7 7 8 8 9 10 10 10 10 10 10 10 9 10 9 7 8 8 8 7 6 6 7 6
2 2 2 2 2 3 3 2 2 2 3 5 6 6 6 5 6 7 7 8 9 10 10 10 11 10 11 11 11 11 10 9 10 10 9 8 8 8 7 8 7 6 7
2 2 3 2 3 3 2 3 2 4 6 5 5 5 6 6 7 7 8 9 10 10 11 11 11 12 12 12 11 10 10 8 8 9 10 9 9 8 8 8 8 7 7
2 2 3 2 2 2 2 2 4 5 5 5 5 5 6 7 8 9 10 11 11 11 11 11 12 12 13 12 10 8 8 9 9 10 10 10 8 7 8 9 9 8 9
2 3 2 2 2 2 3 3 3 4 5 5 6 6 7 7 8 9 10 11 11 12 12 11 11 9 8 8 9 9 9 10 9 10 11 9 9 8 10 9 9 10 9
2 3 2 2 2 3 3 6 7 7 7 7 9 8 9 8 10 9 9 11 11 11 12 13 12 11 8 6 5 5 7 10 10 11 11 10 10 9 9 10 10 12 12
2 3 2 2 2 4 5 7 7 9 9 9 9 10 10 11 11 11 9 11 12 12 13 14 11 9 9 7 6 6 6 6 7 10 12 11 11 10 10 9 11 12 11
3 3 2 4 7 7 7 8 7 9 10 10 10 11 11 11 12 12 12 12 13 13 13 12 11 10 9 8 7 7 7 8 8 7 9 9 9 9 10 10 10 11 11
3 4 6 7 7 7 8 8 8 9 10 11 11 12 12 13 12 13 13 13 14 12 11 10 10 10 8 8 8 9 9 7 6 6 6 7 8 8 8 9 8 10 12
3 5 6 6 8 8 8 8 9 10 10 11 12 12 12 13 13 12 13 13 11 11 10 10 8 9 10 9 9 9 9 8 8 7 7 7 8 8 7 8 9 10 12
5 6 7 7 8 9 9 10 10 10 12 12 13 13 13 13 13 12 10 10 10 9 9 10 9 9 10 10 9 10 9 7 7 6 7 8 9 9 9 8 6 8 11
6 7 7 8 9 10 11 11 11 12 13 13 13 14 14 14 12 11 10 9 9 9 10 11 10 10 10 10 9 9 8 6 6 7 7 9 8 8 8 8 7 6 9
6 8 8 9 9 9 10 12 12 12 13 13 14 15 15 14 11 10 9 9 9 8 8 9 10 10 10 9 9 8 7 6 6 8 9 10 9 8 8 7 7 7 7
7 8 9 9 10 10 10 11 13 14 14 14 15 14 13 12 11 11 10 10 7 7 8 9 9 9 8 8 7 6 6 6 7 8 10 8 8 8 8 8 9 9 8
8 9 9 9 10 11 12 12 13 13 13 13 12 11 12 13 12 11 10 9 8 9 9 9 9 9 9 8 7 7 7 7 7 8 8 9 9 8 8 8 9 10 9
10 10 10 11 11 12 13 15 14 14 13 12 11 12 13 12 11 11 10 10 10 9 9 10 10 9 9 8 8 7 6 7 8 7 7 8 9 8 9 8 8 9 9
10 11 11 11 12 14 15 15 16 13 12 12 12 12 12 12 11 10 10 10 10 9 10 11 10 9 9 8 7 6 7 7 8 6 8 8 8 8 8 8 8 8 8
11 11 11 12 13 14 15 14 13 12 13 13 13 13 12 12 11 10 9 8 9 9 10 9 8 6 5 5 5 5 6 6 6 7 8 8 8 8 9 9 9 9 9
12 12 13 13 14 14 13 12 12 13 13 15 14 12 12 11 11 10 9 9 9 10 9 8 8 7 6 5 6 6 7 6 7 7 7 7 7 8 9 9 9 11 10
13 13 13 13 13 12 11 12 12 13 12 12 11 11 11 10 10 11 10 10 10 10 9 9 9 8 8 7 7 7 7 7 7 6 6 6 6 7 8 8 9 9 8
12 13 13 13 12 11 11 11 11 11 12 11 11 12 13 11 11 11 11 11 11 10 9 9 10 9 9 8 8 8 8 8 8 7 6 6 6 6 7 8 8 7 7
13 13 13 12 11 11 11 11 12 11 11 11 11 12 12 10 11 11 11 11 11 10 10 10 10 10 9 9 10 10 10 10 8 8 6 6 6 6 7 7 7 8 7
12 12 11 11 11 11 11 11 11 11 11 11 11 11 11 11 11 11 11 11 11 11 10 10 10 10 10 10 10 10 11 11 10 7 7 7 7 6 7 7 7 8 8
11 10 10 11 11 11 11 11 11 12 11 11 11 11 11 11 11 11 11 12 11 12 11 11 10 10 10 10 10 10 11 11 9 7 6 6 6 7 7 7 7 7 8
10 10 11 11 11 11 11 11 11 11 11 10 10 11 11 11 11 11 12 12 12 11 12 11 11 10 10 10 10 10 10 10 9 9 7 7 6 5 6 7 6 7 8
10 10 10 10 11 11 11 11 11 11 11 10 10 11 11 11 11 12 12 12 12 12 13 13 12 11 10 10 10 10 10 10 9 9 8 8 7 6 6 6 6 7 8